Location: Noordwijk
(52.2400°N, 4.4500°E)
Time: 14:54:47
(UTC+00:00)

CAS-4A - Pass Details

Date: 11 December 2022
Orbit: 514 x 531 km, 43.0° (Epoch: 01 February)

Event Time Altitude Azimuth Distance (km) Brightness Sun altitude
Exits shadow 04:26:31 18° 150° (SSE) 1,331 ? -28.4°
Drops below altitude 10° 04:28:32 10° 122° (ESE) 1,774 ? -28.1°
Sets 04:31:13 0° 105° (ESE) 2,669 ? -27.7°
